Flag for U.S.A. Weather past 2 weeks in Compton, California, U.S.A.

Now
62 °F

Clear.


Feels Like: 62 °F
Forecast: 57 / 84 °F
Wind: No wind

Location: Hawthorne Municipal Airport

Current Time: Apr 28, 2015 at 4:27:21 AM

Latest Report: Apr 28, 2015 at 3:53 AM


Visibility: 10 mi

Pressure: 29.94 "Hg

Humidity: 50%

Dew point: 43 °F

Location of ComptonLocation

Historic Weather in Compton — Graph

°F

Compton temperature yesterday

Maximum temperature yesterday: 80 °F (at 10:53 AM)
Minimum temperature yesterday: 58 °F (at 4:53 AM)
Average temperature yesterday: 70 °F

Past Weeks' High & Low Weather Summary

 TemperatureHumidityPressure
High81 °F (Apr 16, 1:53 PM)90% (Apr 25, 2:55 PM)30.10 "Hg (Apr 25, 2:55 PM)
Low54 °F (Apr 26, 6:53 AM)7% (Apr 16, 11:53 AM)29.84 "Hg (Apr 20, 5:53 PM)
Average64 °F59%29.95 "Hg
* Reported Apr 13 2:53 AM — Apr 28 2:53 AM, Compton, Weather by CustomWeather, © 2015

Note: Actual official high and low records may vary slightly from our data, if they occured in-between our weather recording intervals... More about our weather records

Advertising

Compton weather history for previous 24 hours

 ConditionsComfort  
Time TempWeatherWind HumidityBarometerVisibility
2:53 AM
Tue, Apr 28
63 °FClear.No wind54%29.94 "Hg10 mi
1:53 AM63 °FClear.No wind56%29.95 "Hg10 mi
12:53 AM65 °FClear.No wind52%29.96 "Hg10 mi
11:53 PM
Mon, Apr 27
67 °FClear.No wind49%29.96 "Hg10 mi
10:53 PM69 °FClear.No wind44%29.95 "Hg10 mi
9:53 PM69 °FClear.6 mph44%29.95 "Hg10 mi
8:53 PM71 °FClear.7 mph36%29.93 "Hg10 mi
7:53 PM73 °FSunny.6 mph29%29.91 "Hg10 mi
6:53 PM74 °FSunny.8 mph29%29.89 "Hg10 mi
5:53 PM78 °FSunny.10 mph23%29.89 "Hg10 mi
4:53 PM79 °FSunny.13 mph19%29.90 "Hg10 mi
3:53 PM79 °FSunny.12 mph21%29.90 "Hg10 mi
2:53 PM78 °FSunny.10 mph29%29.91 "Hg10 mi
1:53 PM78 °FSunny.10 mph39%29.92 "Hg10 mi
12:53 PM77 °FSunny.13 mph35%29.93 "Hg10 mi
11:53 AM79 °FSunny.12 mph30%29.94 "Hg10 mi
10:53 AM80 °FSunny.7 mph23%29.95 "Hg10 mi
9:53 AM75 °FSunny.No wind33%29.96 "Hg10 mi
8:53 AM69 °FSunny.No wind51%29.96 "Hg10 mi
7:53 AM64 °FSunny.3 mph63%29.94 "Hg10 mi
6:53 AM60 °FClear.No wind72%29.93 "Hg10 mi
5:53 AM58 °FClear.No wind78%29.92 "Hg10 mi
4:53 AM58 °FClear.No wind78%29.91 "Hg10 mi
Weather by CustomWeather, © 2015

See weather overviewHow to use our weather pages